[ hide orbit diagram ]
For accurate long-term ephemerides, please instead use our Horizons system.This orbit viewer was implemented using two-body methods, and hence should not be used for determining accurate long-term trajectories (over several years or decades) or planetary encounter circumstances.
Orbital Elements at Epoch 2459200.5 (2020-Dec-17.0) TDB
Reference: JPL 35 (heliocentric ecliptic J2000)
Element | Value | Uncertainty (1-sigma) | Units |
e | .2262714780480125 | 4.1868e-08 | |
a | 2.78890093680558 | 1.4381e-08 | au |
q | 2.157852199705095 | 1.1322e-07 | au |
i | 16.13544020283508 | 4.8033e-06 | deg |
node | 231.9843146296689 | 1.4718e-05 | deg |
peri | 202.5964830085464 | 1.74e-05 | deg |
M | 260.0617305446567 | 1.1081e-05 | deg |
tp | 2459672.755890072093 (2022-Apr-03.25589007) | 5.455e-05 | TDB |
period | 1701.171346597332 4.66 | 1.3159e-05 3.603e-08 | d yr |
n | .2116188946634146 | 1.6369e-09 | deg/d |
Q | 3.419949673906066 | 1.7636e-08 | au |
|
| | Orbit Determination Parameters
Additional Information
|
[ show covariance matrix ]
Physical Parameter Table
Parameter |
Symbol |
Value |
Units |
Sigma |
Reference |
Notes |
absolute magnitude |
H |
12.84 |
|
n/a |
E2021B10 |
|
diameter |
diameter |
16.889 |
km |
0.315 |
urn:nasa:pds:neowise_diameters_albedos::2.0[mainbelt] (http://adsabs.harvard.edu/abs/2011ApJ...741...68M) |
|
geometric albedo |
albedo |
0.056 |
|
0.014 |
urn:nasa:pds:neowise_diameters_albedos::2.0[mainbelt] (http://adsabs.harvard.edu/abs/2011ApJ...741...68M) |
|
|
7812 Billward | Discovered 1984 Oct. 26 by E. Bowell at the Anderson Mesa Station of the Lowell Observatory. |
Named in honor of William R. Ward (b. 1943), an accomplished theoretician who specializes in dynamics and celestial mechanics. Ward has made fundamental contributions to a wide variety of topics in modern planetary science, including both solar nebula and circumplanetary disk dynamics, the origin of the moon, planetesimal formation, planetary ring dynamics, and martian obliquity variations and their coupling to planetwide climatological change. Ward has spent most of his career at the Jet Propulsion Laboratory and Southwest Research Institute, Boulder. Both his talents and his good spirits are enjoyed by colleagues around the world. Name proposed and citation written by S. A. Stern. |
NOTE: some special characters may not display properly (any characters within {} are an attempt to place the proper accent above a character) |
Reference: 19990728/MPCPages.arc | Last Updated: 2010-06-11 |
|
[ show close-approach data ]
|